Milwaukee, WI

7:22 AM CDT on September 27, 2016 (GMT -0500)
Gen Mitchell International

Weather History for KMKE - August, 2014

Change the Weather History Date:

Thursday, August 21, 2014

  Actual Average Record
Temperature  
Mean Temperature 71 °F 70 °F  
Max Temperature 77 °F 78 °F 100 °F (1955)
Min Temperature 65 °F 63 °F 46 °F (1950)
Degree Days  
Heating Degree Days 0 0  
Month to date heating degree days 5 0  
Since 1 June heating degree days 100 95  
Since 1 July heating degree days 26 11  
Cooling Degree Days 6 6  
Month to date cooling degree days 91 140  
Year to date cooling degree days 326 512  
Since 1 June cooling degree days 308 482  
Growing Degree Days 20 (Base 50)    
Moisture  
Dew Point 67 °F    
Average Humidity 87    
Maximum Humidity 97    
Minimum Humidity 76    
Precipitation  
Precipitation 0.44 in 0.12 in 1.95 in (1886)
Month to date precipitation 3.58 2.80  
Year to date precipitation 23.18 23.01  
Snow  
Snow 0.00 in 0.00 in 0.00 in ()
Month to date snowfall 0.0 0.0  
Since 1 June snowfall 0.0 0.0  
Since 1 July snowfall 0.0 0.0  
Snow Depth 0.00 in    
Sea Level Pressure  
Sea Level Pressure 29.95 in    
Wind  
Wind Speed 5 mph (SE)    
Max Wind Speed 15 mph    
Max Gust Speed 16 mph    
Visibility 7 miles    
Events Rain , Thunderstorm    
T = Trace of Precipitation, MM = Missing Value Source: NWS Daily Summary

Daily Weather History Graph

Daily Weather History Graph

Search for Another Location

Airport or City:

Trip Planner

Search our weather history database for the weather conditions in past years. The results will help you decide how hot, cold, wet, or windy it might be!

Date:

Astronomy

Aug. 21, 2014 Rise Set
Actual Time 6:04 AM CDT 7:44 PM CDT
Civil Twilight 5:34 AM CDT 8:14 PM CDT
Nautical Twilight 4:57 AM CDT 8:50 PM CDT
Astronomical Twilight 4:18 AM CDT 9:29 PM CDT
Moon 2:31 AM CDT (8/21) 5:15 PM CDT (8/21)
Length of Visible Light 14h 40m
Length of Day
13h 40m
Waning Crescent, 13% of the Moon is Illuminated
Aug 21
Waning Crescent
Aug 25
New
Sep 2
First Quarter
Sep 8
Full
Sep 15
Last Quarter

Hourly Weather History & Observations

Time (CDT) Temp. Dew Point Humidity Pressure Visibility Wind Dir Wind Speed Gust Speed Precip Events Conditions
12:52 AM 68.0 °F 63.0 °F 84% 29.96 in 10.0 mi East 5.8 mph - N/A   Scattered Clouds
1:52 AM 66.9 °F 62.1 °F 84% 29.95 in 10.0 mi SE 3.5 mph - N/A   Partly Cloudy
2:52 AM 66.0 °F 62.1 °F 87% 29.94 in 10.0 mi ENE 4.6 mph - N/A   Scattered Clouds
3:52 AM 66.0 °F 62.1 °F 87% 29.93 in 10.0 mi Calm Calm - N/A   Scattered Clouds
4:52 AM 66.9 °F 63.0 °F 87% 29.94 in 10.0 mi South 4.6 mph - N/A   Mostly Cloudy
5:52 AM 66.0 °F 63.0 °F 90% 29.93 in 10.0 mi Calm Calm - N/A   Mostly Cloudy
6:14 AM 66.9 °F 63.0 °F 87% 29.94 in 10.0 mi Calm Calm - N/A   Mostly Cloudy
6:39 AM 68.0 °F 64.0 °F 87% 29.94 in 10.0 mi Calm Calm - N/A   Overcast
6:52 AM 68.0 °F 64.0 °F 87% 29.93 in 10.0 mi East 3.5 mph - N/A   Mostly Cloudy
7:52 AM 70.0 °F 64.9 °F 84% 29.96 in 9.0 mi Calm Calm - N/A   Mostly Cloudy
8:52 AM 73.0 °F 66.0 °F 79% 29.94 in 10.0 mi SW 5.8 mph - N/A   Mostly Cloudy
9:52 AM 73.0 °F 66.9 °F 81% 29.94 in 10.0 mi ENE 9.2 mph - N/A   Overcast
10:52 AM 71.1 °F 66.9 °F 87% 29.94 in 10.0 mi Calm Calm - 0.00 in Rain Light Rain
11:30 AM 71.1 °F 66.9 °F 87% 29.94 in 7.0 mi ESE 5.8 mph - 0.00 in Rain Light Rain
11:52 AM 71.1 °F 66.9 °F 87% 29.93 in 8.0 mi ESE 6.9 mph - 0.00 in Rain Light Rain
12:06 PM 71.1 °F 68.0 °F 90% 29.95 in 9.0 mi ESE 4.6 mph - 0.00 in Rain Light Rain
12:52 PM 71.1 °F 66.9 °F 87% 30.00 in 6.0 mi NNW 5.8 mph - 0.02 in Rain Light Rain
12:56 PM 71.1 °F 68.0 °F 90% 30.01 in 2.5 mi NW 4.6 mph - 0.02 in Rain , Thunderstorm Light Thunderstorms and Rain
12:59 PM 71.1 °F 68.0 °F 90% 30.02 in 1.2 mi NW 4.6 mph - 0.05 in Rain , Thunderstorm Light Thunderstorms and Rain
1:11 PM 70.0 °F 68.0 °F 93% 30.03 in 1.0 mi NNW 5.8 mph - 0.29 in Rain , Thunderstorm Light Thunderstorms and Rain
1:19 PM 70.0 °F 68.0 °F 93% 30.01 in 2.0 mi NNE 3.5 mph - 0.33 in Rain , Thunderstorm Light Thunderstorms and Rain
1:45 PM 70.0 °F 68.0 °F 93% 29.94 in 4.0 mi East 13.8 mph - 0.40 in Rain Light Rain
1:52 PM 70.0 °F 68.0 °F 93% 29.92 in 4.0 mi East 10.4 mph - 0.41 in Rain Light Rain
2:24 PM 71.1 °F 69.1 °F 93% 29.95 in 4.0 mi NE 3.5 mph - 0.01 in   Overcast
2:52 PM 72.0 °F 69.1 °F 91% 29.95 in 8.0 mi Calm Calm - 0.01 in   Overcast
3:09 PM 72.0 °F 68.0 °F 87% 29.94 in 9.0 mi SSE 6.9 mph - N/A   Overcast
3:28 PM 72.0 °F 69.1 °F 91% 29.94 in 8.0 mi SSE 10.4 mph - N/A   Overcast
3:52 PM 73.0 °F 70.0 °F 90% 29.93 in 7.0 mi SSE 10.4 mph - N/A   Overcast
4:10 PM 73.0 °F 70.0 °F 90% 29.92 in 8.0 mi SSE 9.2 mph - N/A   Overcast
4:52 PM 77.0 °F 71.1 °F 82% 29.91 in 10.0 mi South 8.1 mph - N/A   Mostly Cloudy
5:52 PM 77.0 °F 70.0 °F 79% 29.90 in 10.0 mi SSW 6.9 mph - N/A   Mostly Cloudy
5:59 PM 77.0 °F 69.1 °F 76% 29.91 in 10.0 mi SSW 4.6 mph - N/A   Mostly Cloudy
6:12 PM 75.9 °F 70.0 °F 82% 29.91 in 10.0 mi South 5.8 mph - N/A   Mostly Cloudy
6:52 PM 73.9 °F 69.1 °F 85% 29.91 in 10.0 mi ESE 5.8 mph - N/A   Mostly Cloudy
7:52 PM 73.0 °F 69.1 °F 87% 29.92 in 10.0 mi SSE 5.8 mph - N/A   Mostly Cloudy
8:05 PM 73.0 °F 69.1 °F 87% 29.93 in 10.0 mi SSE 6.9 mph - N/A   Mostly Cloudy
8:52 PM 72.0 °F 69.1 °F 91% 29.93 in 9.0 mi SSE 5.8 mph - N/A   Mostly Cloudy
10:31 PM 71.1 °F 68.0 °F 90% 29.95 in 6.0 mi ESE 4.6 mph - N/A   Mostly Cloudy
10:52 PM 71.1 °F 68.0 °F 90% 29.94 in 5.0 mi SE 6.9 mph - N/A   Overcast
11:09 PM 71.1 °F 68.0 °F 90% 29.95 in 2.0 mi SE 5.8 mph - N/A   Overcast
11:16 PM 70.0 °F 68.0 °F 93% 29.96 in 1.5 mi SSE 6.9 mph - N/A   Overcast
11:22 PM 70.0 °F 68.0 °F 93% 29.96 in 0.8 mi SSE 6.9 mph - N/A   Overcast
11:52 PM 70.0 °F 68.0 °F 93% 29.96 in 0.5 mi SE 5.8 mph - N/A   Overcast